Satellite: GO-32
Catalog number: 25397
Epoch time:      08325.05127324
Element set:     751
Inclination:      098.3473 deg
RA of node:       352.3883 deg
Eccentricity:    0.0001920
Arg of perigee:   121.7363 deg
Mean anomaly:     238.4019 deg
Mean motion:   14.23151400 rev/day
Decay rate:        3.1e-07 rev/day^2
Epoch rev:           53838
Checksum:              277

Satellite: NO-44
Catalog number: 26931
Epoch time:      08323.27606400
Element set:      29
Inclination:      067.0530 deg
RA of node:       247.6974 deg
Eccentricity:    0.0006686
Arg of perigee:   256.0498 deg
Mean anomaly:     103.9861 deg
Mean motion:   14.29538907 rev/day
Decay rate:       -8.4e-07 rev/day^2
Epoch rev:           37243
Checksum:              320

Satellite: SO-50
Catalog number: 27607
Epoch time:      08325.26280066
Element set:     749
Inclination:      064.5602 deg
RA of node:       299.6252 deg
Eccentricity:    0.0084511
Arg of perigee:   249.0584 deg
Mean anomaly:     110.1406 deg
Mean motion:   14.71395958 rev/day
Decay rate:       -6.4e-07 rev/day^2
Epoch rev:           31793
Checksum:              314

Satellite: CO-55
Catalog number: 27844
Epoch time:      08325.44527209
Element set:     445
Inclination:      098.7169 deg
RA of node:       331.5528 deg
Eccentricity:    0.0010510
Arg of perigee:   030.1018 deg
Mean anomaly:     330.0756 deg
Mean motion:   14.20607544 rev/day
Decay rate:        4.1e-07 rev/day^2
Epoch rev:           27962
Checksum:              285

Satellite: CO-57
Catalog number: 27848
Epoch time:      08323.06944597
Element set:     394
Inclination:      098.7168 deg
RA of node:       328.2821 deg
Eccentricity:    0.0010463
Arg of perigee:   038.2739 deg
Mean anomaly:     321.9184 deg
Mean motion:   14.20413952 rev/day
Decay rate:        4.0e-07 rev/day^2
Epoch rev:           27925
Checksum:              327

Satellite: AO-51
Catalog number: 28375
Epoch time:      08325.53165566
Element set:     248
Inclination:      098.0610 deg
RA of node:       341.2378 deg
Eccentricity:    0.0085170
Arg of perigee:   038.6818 deg
Mean anomaly:     322.0432 deg
Mean motion:   14.40625050 rev/day
Decay rate:        1.8e-07 rev/day^2
Epoch rev:           23091
Checksum:              285

Satellite: CO-56
Catalog number: 28941
Epoch time:      08325.83785922
Element set:     569
Inclination:      098.1228 deg
RA of node:       099.0662 deg
Eccentricity:    0.0139107
Arg of perigee:   188.6198 deg
Mean anomaly:     171.2582 deg
Mean motion:   15.65414474 rev/day
Decay rate:     4.4453e-04 rev/day^2
Epoch rev:           15447
Checksum:              357

Satellite: CP3
Catalog number: 31128
Epoch time:      08325.14642880
Element set:     486
Inclination:      098.0196 deg
RA of node:       021.8347 deg
Eccentricity:    0.0102259
Arg of perigee:   211.9701 deg
Mean anomaly:     147.5286 deg
Mean motion:   14.51993083 rev/day
Decay rate:       -4.7e-07 rev/day^2
Epoch rev:            8456
Checksum:              306

Satellite: CP4
Catalog number: 31132
Epoch time:      08322.63879946
Element set:     461
Inclination:      098.0225 deg
RA of node:       022.3611 deg
Eccentricity:    0.0085009
Arg of perigee:   211.2956 deg
Mean anomaly:     148.3156 deg
Mean motion:   14.55158745 rev/day
Decay rate:        7.1e-07 rev/day^2
Epoch rev:            8426
Checksum:              292

Satellite: CO-65
Catalog number: 32785
Epoch time:      08325.14900223
Element set:     214
Inclination:      097.9760 deg
RA of node:       024.5270 deg
Eccentricity:    0.0014905
Arg of perigee:   355.0303 deg
Mean anomaly:     005.0760 deg
Mean motion:   14.81418151 rev/day
Decay rate:       4.03e-06 rev/day^2
Epoch rev:            3049
Checksum:              263

/EX
SB KEPS @ AMSAT  $ORB08325.W
Orbital Elements  08325.WEATHER

HR AMSAT ORBITAL ELEMENTS FOR WEATHER SATELLITES
FROM WA5QGD FORT WORTH,TX November 20, 2008
Send Subscribe/unsubscribe to KEPS at 
http://www.amsat.org/mailman/listinfo/keps
BID: ORB08325.W
TO ALL RADIO AMATEURS BT

Satellite: NOAA-10
Catalog number: 16969
Epoch time:      08325.19460648
Element set:     377
Inclination:      098.7116 deg
RA of node:       346.7752 deg
Eccentricity:    0.0013130
Arg of perigee:   086.7131 deg
Mean anomaly:     273.5568 deg
Mean motion:   14.27372659 rev/day
Decay rate:      -1.34e-06 rev/day^2
Epoch rev:           15369
Checksum:              330

Satellite: NOAA-11
Catalog number: 19531
Epoch time:      08324.88668687
Element set:     403
Inclination:      098.7937 deg
RA of node:       052.0090 deg
Eccentricity:    0.0011568
Arg of perigee:   348.9924 deg
Mean anomaly:     011.1007 deg
Mean motion:   14.14881219 rev/day
Decay rate:       -8.3e-07 rev/day^2
Epoch rev:            3992
Checksum:              316

Satellite: NOAA-12
Catalog number: 21263
Epoch time:      08325.51127258
Element set:     913
Inclination:      098.7713 deg
RA of node:       327.4936 deg
Eccentricity:    0.0013167
Arg of perigee:   034.6772 deg
Mean anomaly:     325.5264 deg
Mean motion:   14.25554919 rev/day
Decay rate:        9.0e-08 rev/day^2
Epoch rev:           91066
Checksum:              310

